User: anonymous   Login
Location: B�rgermoos
(47.6500°N, 9.0667°E)
Time: 05:08:14
(UTC+00:00)
Language:

S-56A Canister/Altair - Orbit

View from above orbital plane
View from above orbital plane
View from above satellite
View from above satellite

Ground track
Ground track

The orbit data is extracted from the following two-line orbital elements,

1 00082U 61004B   21211.50196912 -.00000120  00000-0 -72317-4 0  9990
2 00082  38.8642 127.4289 1176561 252.9380  93.9320 12.26028942857891
Epoch (UTC): 30 July 2021 12:02:50
Eccentricity: 0.1176561
inclination: 38.8642°
perigee height: 631 km
apogee height: 2501 km
right ascension of ascending node: 127.4289°
argument of perigee: 252.9380°
revolutions per day: 12.26028942
mean anomaly at epoch: 93.9320°
orbit number at epoch: 85789

The dashed part of the orbit path shows where the satellite is in the earth's shadow,  

DLR